Temperature
16 16 16 16 16 16 16 16 16 15 16 15 15 15 15 15 15 15 15 15 15 15 15 15 15 15 15 15 15 15 15 15 15 15 15 15 15 15 15 15 15 15 15
16 16 16 16 16 15 15 15 15 15 15 15 15 15 15 15 15 15 15 15 15 15 15 15 15 15 15 15 15 15 15 15 15 14 15 15 15 15 15 15 15 15 15
16 16 16 15 15 15 15 15 15 15 15 15 15 15 15 15 15 15 15 15 15 15 14 14 14 14 14 14 14 14 14 14 14 14 14 14 14 14 14 14 14 14 14
16 16 16 15 15 15 15 15 15 15 15 15 15 15 15 15 15 15 15 14 14 14 14 14 14 14 14 14 14 14 14 14 14 14 14 14 14 14 14 14 14 14 14
16 16 15 15 15 15 15 15 15 15 15 15 15 15 15 14 14 14 14 14 14 14 14 14 14 14 14 14 14 14 14 14 13 14 14 14 14 14 14 14 14 14 14
16 15 15 15 15 15 15 14 14 14 14 15 15 15 15 15 14 14 14 14 14 14 14 14 14 14 14 13 13 13 13 13 13 13 13 13 13 13 13 13 13 13 13
15 15 15 15 15 15 14 14 14 14 14 14 15 15 15 14 14 14 14 14 14 14 13 13 13 13 13 13 13 13 13 13 13 13 13 13 13 13 13 13 13 13 13
15 15 15 15 15 14 14 14 14 14 14 14 14 14 14 14 14 14 14 14 14 14 13 13 13 13 13 13 13 13 13 13 13 13 13 13 13 13 13 13 13 12 12
15 15 15 15 14 14 14 14 14 14 14 14 14 14 14 14 14 14 14 14 14 13 13 13 13 13 13 13 13 13 13 13 12 13 13 13 12 12 12 12 12 12 12
15 15 15 15 14 14 14 14 14 14 14 14 14 14 14 14 14 13 13 13 13 13 13 13 13 13 12 13 13 13 13 12 12 12 12 12 12 12 12 12 12 12 12
15 15 15 14 14 14 14 14 14 14 14 14 14 14 14 14 14 14 13 13 13 13 13 13 13 13 12 12 12 12 12 12 12 12 12 12 12 12 12 12 12 12 12
15 15 15 14 14 14 14 14 14 14 14 13 13 14 14 14 14 14 14 13 13 13 13 13 13 12 12 12 12 12 12 12 12 12 12 12 12 11 11 11 11 11 11
15 15 14 14 14 14 14 14 14 14 13 13 13 13 13 13 14 14 13 13 13 13 13 13 13 12 12 12 12 12 12 12 12 12 12 12 12 11 11 11 11 11 11
14 14 14 14 14 14 14 14 14 13 13 13 13 13 13 13 13 13 13 13 13 13 13 13 12 12 12 12 12 12 12 12 12 12 12 12 11 11 11 11 11 10 10
14 14 14 14 14 14 14 14 14 13 13 13 13 13 13 13 13 13 13 13 13 13 12 12 12 12 12 12 12 12 12 12 11 11 11 11 11 11 11 11 11 10 10
14 14 14 14 14 14 14 13 13 13 13 13 13 13 13 13 13 13 13 13 13 13 12 12 12 12 12 12 12 12 12 11 11 11 11 11 11 11 11 11 11 10 10
14 14 14 13 13 13 13 13 13 13 13 13 13 13 13 13 12 12 12 12 12 12 12 12 12 12 12 12 12 11 11 11 11 11 11 11 11 11 11 11 10 10 10
13 13 13 13 13 13 13 13 13 13 13 13 13 13 12 12 12 12 12 12 12 12 12 12 12 12 12 12 11 11 11 11 11 11 11 11 11 10 10 10 10 10 10
13 13 13 13 13 13 13 13 13 13 12 12 12 12 12 12 12 12 12 12 12 12 12 11 11 11 11 11 11 11 11 10 10 10 10 10 10 10 10 10 10 10 10
13 13 13 12 12 12 12 12 12 12 12 12 12 12 12 12 12 12 12 11 11 11 11 11 11 11 11 11 11 11 10 10 10 10 10 10 10 10 10 10 10 10 10
12 12 12 12 12 12 12 12 12 12 12 12 12 12 12 12 11 11 11 11 11 11 11 11 11 11 11 11 11 10 10 10 10 10 10 10 10 10 10 10 10 10 9
12 12 12 12 12 12 12 12 12 12 12 12 12 11 11 11 11 11 11 11 11 11 11 10 10 10 10 10 10 10 10 10 9 10 9 9 9 9 9 9 9 9 9
12 12 12 12 12 11 11 11 11 11 11 11 11 11 11 11 11 11 11 10 10 10 10 10 10 10 10 10 10 10 10 10 10 9 9 9 9 9 9 9 9 9 9
12 11 11 11 11 11 11 11 11 11 11 11 10 10 10 10 10 10 10 10 10 10 10 10 10 10 10 10 10 10 10 9 9 9 9 9 9 9 9 9 9 9 9
11 11 11 11 11 11 11 11 11 10 10 10 10 10 10 10 10 10 10 10 10 10 10 10 10 9 9 9 9 9 9 9 9 9 9 9 9 9 9 9 9 9 8
11 11 11 11 11 11 11 10 10 10 10 10 10 10 10 10 10 10 10 10 10 10 10 9 9 9 9 9 9 9 9 9 8 8 9 8 8 8 8 8 8 8 8
Wind_Speed
2 3 3 3 5 5 4 3 4 5 5 6 7 7 7 8 10 11 10 14 14 13 13 13 13 13 14 14 14 14 14 14 14 14 14 13 13 12 12 12 11 11 11
3 3 3 3 4 4 4 3 4 4 4 4 4 6 6 7 9 10 10 11 13 13 13 13 12 12 13 14 14 14 14 14 14 15 15 14 14 13 12 12 11 11 12
4 4 3 3 3 5 5 5 4 4 3 4 4 4 5 5 6 8 9 9 9 11 12 12 12 12 12 13 13 13 13 14 14 14 14 14 14 13 13 12 12 12 12
6 5 3 2 4 5 4 2 2 3 3 3 4 3 3 3 4 5 7 8 8 9 10 11 11 11 11 11 12 12 12 12 13 13 13 13 12 12 12 12 11 11 11
7 5 3 3 5 3 2 3 3 3 3 2 2 2 2 2 2 4 4 6 8 10 9 10 11 11 10 10 11 11 11 11 11 11 11 11 11 11 11 11 12 11 11
6 5 2 3 3 2 2 2 2 2 2 1 2 2 1 2 2 3 3 5 6 8 8 9 8 9 10 10 10 10 11 11 10 10 10 10 10 10 11 11 11 11 11
4 4 2 3 2 2 1 2 2 2 1 1 1 1 1 2 2 2 2 3 4 5 6 8 8 8 8 9 10 10 10 10 9 9 9 9 10 10 10 10 10 10 10
3 3 2 2 2 1 1 1 1 1 1 0 0 0 0 2 2 1 2 2 2 3 4 6 7 8 9 8 9 10 9 9 9 9 8 8 8 8 9 9 9 9 9
2 2 2 2 2 1 1 1 1 1 0 1 1 0 1 1 0 1 1 2 2 2 2 3 6 8 9 9 9 8 8 8 8 8 8 8 8 8 8 7 7 7 7
2 1 2 2 2 2 2 2 2 1 1 1 2 1 0 1 2 0 1 1 1 2 2 2 4 7 9 10 9 8 8 7 7 7 6 7 7 7 6 6 6 6 6
2 2 2 2 2 2 2 2 1 1 1 1 1 1 1 1 0 2 1 1 0 1 2 2 3 5 8 9 9 8 7 7 6 6 5 5 5 5 5 5 5 5 5
1 1 1 1 1 1 2 2 2 2 1 1 1 1 1 0 1 1 1 2 2 2 2 2 3 4 7 9 8 8 7 6 5 5 4 4 3 4 4 4 3 3 3
1 2 1 2 2 2 2 1 1 2 2 2 2 1 1 1 1 1 1 1 1 1 1 2 3 6 7 9 8 8 7 6 5 4 3 3 2 2 2 2 1 1 2
2 2 2 2 1 1 2 2 2 2 2 3 3 2 1 1 1 0 1 1 1 1 1 2 2 4 7 9 10 9 8 7 5 4 3 2 1 1 1 0 0 1 0
2 3 3 3 2 1 2 2 2 2 2 2 2 2 2 1 1 1 1 2 2 1 2 2 1 3 6 9 10 9 8 8 7 5 4 3 2 2 2 1 1 1 1
1 2 2 2 2 2 2 1 2 2 2 2 1 2 2 1 1 1 1 1 1 2 2 2 2 2 4 6 8 7 8 9 9 7 6 4 3 3 3 3 3 2 2
1 2 2 2 2 2 3 2 2 3 3 3 2 2 3 2 1 1 1 1 1 1 1 1 0 2 3 2 3 5 6 8 8 8 7 6 5 4 4 4 4 3 3
1 1 1 1 2 2 2 2 2 2 2 3 3 3 3 2 1 1 0 1 1 1 2 1 1 2 3 4 4 3 4 6 7 9 9 8 7 6 5 5 5 4 4
1 1 1 1 2 2 2 2 3 3 3 3 2 3 3 3 2 2 2 1 1 1 1 2 1 1 2 2 3 2 2 3 5 7 9 9 8 7 7 7 6 5 5
1 1 1 1 1 1 1 1 2 3 3 3 2 2 2 3 3 3 3 3 2 1 1 1 1 1 1 2 2 2 2 2 3 4 6 7 8 8 9 8 8 7 6
1 1 1 1 1 0 1 1 2 3 3 3 2 2 1 3 3 3 2 2 2 2 1 1 1 1 1 2 3 3 3 3 3 3 2 4 5 6 8 9 10 9 8
2 1 1 1 1 1 0 1 2 3 3 3 3 3 2 3 3 3 3 3 3 3 3 3 2 3 3 3 2 3 3 2 2 3 3 3 4 4 7 9 11 11 10
2 2 2 2 2 2 2 2 3 3 3 3 3 3 2 3 4 3 3 4 4 5 5 4 4 4 4 4 3 3 3 3 4 3 2 3 3 4 6 9 12 13 12
2 3 3 3 2 2 2 3 4 4 4 3 3 3 2 1 2 2 3 4 5 5 6 5 4 4 3 3 4 5 4 3 2 1 2 3 3 4 4 7 11 13 13
2 3 3 3 3 3 3 3 3 3 4 4 4 2 2 2 2 2 2 3 4 5 6 7 7 6 4 4 3 2 2 2 2 3 2 2 3 2 2 4 9 12 12
3 3 3 3 3 3 3 3 4 3 3 4 3 2 3 2 2 2 2 3 5 5 4 4 5 5 4 4 5 4 5 3 2 3 3 3 2 1 2 3 4 8 9
Wind_Direction
67 67 74 57 60 64 67 51 57 56 51 52 61 66 71 80 86 85 77 73 73 74 76 77 79 80 79 78 77 82 82 80 78 76 73 73 76 76 77 78 80 82 82
75 69 58 56 53 47 48 57 58 54 55 55 55 66 68 74 91 98 97 85 79 77 77 77 77 79 80 80 79 80 81 80 78 76 74 73 74 73 75 76 78 80 81
82 79 64 56 56 49 44 54 55 55 54 52 55 61 70 61 80 101 107 104 94 84 80 78 78 79 80 80 79 79 80 80 80 77 76 74 74 73 72 74 77 78 79
79 81 75 63 66 65 52 39 58 55 54 44 47 44 61 57 54 82 104 108 108 98 90 86 82 80 82 84 85 83 82 83 82 79 77 76 76 75 73 73 74 76 78
70 78 71 70 65 66 48 32 48 60 64 59 69 55 46 54 49 63 78 97 105 109 105 96 88 83 84 87 88 87 84 84 84 81 80 80 80 80 79 78 75 74 76
73 82 81 82 72 69 57 47 49 59 75 56 70 63 43 79 64 49 48 68 90 105 115 113 102 90 85 85 86 87 88 86 86 85 83 82 81 83 83 81 77 75 74
91 93 80 77 76 78 67 65 61 50 65 89 71 50 21 62 78 85 68 63 65 83 102 115 116 109 98 90 85 84 83 84 88 88 84 84 87 85 82 79 79 77 74
92 111 119 109 106 107 79 62 70 38 334 358 112 158 58 12 2 90 99 99 86 80 77 91 104 107 103 98 90 86 81 82 83 82 85 89 90 87 83 80 79 78 76
107 105 120 128 142 162 174 168 163 127 281 312 356 84 123 173 283 341 113 108 98 85 75 85 91 103 106 104 100 92 87 87 87 86 81 84 90 90 88 85 83 80 79
125 138 146 160 178 176 179 205 169 174 177 269 317 339 20 142 141 278 332 32 106 109 110 82 84 92 104 107 109 102 93 91 91 88 87 84 88 93 92 88 87 83 79
157 178 184 204 195 187 187 188 177 199 193 193 234 294 320 339 124 154 219 230 349 140 138 120 110 108 111 117 118 114 106 99 95 90 88 86 84 87 89 88 87 86 82
182 198 186 206 202 196 205 197 193 200 207 197 239 236 214 194 242 198 203 201 194 207 163 139 131 130 128 126 128 128 123 117 112 100 90 85 84 87 87 85 87 96 86
195 216 195 215 204 190 195 182 217 213 209 207 224 240 250 251 207 194 168 202 204 202 158 171 164 150 145 133 136 142 142 140 132 119 108 99 101 96 86 78 77 103 104
195 196 202 220 190 177 204 182 222 228 225 219 218 217 233 254 256 217 171 160 202 254 190 203 171 158 153 148 155 157 159 159 154 149 142 130 146 163 154 67 67 62 88
200 190 188 194 177 170 212 195 221 228 233 232 216 220 219 235 240 272 239 177 169 209 241 207 177 176 148 147 164 167 166 176 177 176 174 174 186 198 215 230 243 275 280
194 180 191 189 176 184 202 193 229 242 231 232 220 226 223 232 230 236 276 277 198 178 229 226 196 168 148 152 172 171 172 184 188 190 192 199 207 214 220 228 230 235 243
190 197 202 201 196 199 191 185 225 224 227 224 226 226 229 214 181 221 240 294 264 179 205 280 188 153 139 142 151 168 172 176 189 200 204 210 217 226 226 231 235 241 243
201 218 208 214 223 212 197 178 217 234 230 232 225 216 219 204 184 184 196 266 276 209 168 216 242 173 173 177 163 181 186 190 191 204 206 210 214 222 228 229 233 234 235
202 216 216 230 236 225 217 197 203 228 231 235 225 214 206 183 194 191 184 223 242 211 146 173 226 215 186 175 160 196 206 200 203 199 204 210 213 220 227 227 227 228 229
172 198 228 242 247 230 247 249 234 232 232 232 235 230 219 187 194 193 197 207 199 175 157 161 195 234 209 190 158 190 231 232 233 207 200 205 214 221 226 229 226 224 223
191 218 218 250 276 229 295 308 287 272 250 238 227 225 229 185 182 181 193 194 183 175 167 171 193 234 235 190 204 203 212 231 239 214 190 206 205 213 220 226 226 224 222
205 230 229 220 233 246 249 299 307 291 278 254 232 226 217 202 197 195 193 184 181 190 194 191 205 214 230 220 206 205 202 203 248 230 192 226 194 214 219 221 221 219 218
197 217 240 228 214 212 227 258 275 282 273 268 247 233 249 224 194 195 206 209 220 226 206 195 210 220 218 214 195 211 210 205 227 228 187 233 219 223 224 225 215 214 216
205 210 223 228 212 214 227 252 257 257 269 274 266 235 222 219 206 196 204 215 223 224 223 219 223 229 229 211 195 204 216 219 247 229 165 226 231 229 229 219 215 215 217
215 223 217 224 220 221 225 241 235 245 255 265 274 271 240 213 242 220 225 232 236 244 235 228 229 237 248 244 205 171 191 200 247 254 210 205 240 238 228 228 220 213 211
219 224 228 233 220 213 219 226 218 235 250 259 266 271 269 246 243 217 219 245 245 245 241 238 239 245 245 240 219 196 193 205 225 243 221 196 227 205 261 238 204 203 210
Height
1537 1537 1538 1538 1538 1538 1538 1538 1538 1538 1539 1539 1539 1539 1539 1539 1538 1538 1538 1537 1537 1536 1536 1536 1535 1535 1535 1535 1535 1535 1535 1536 1537 1537 1537 1538 1539 1539 1540 1540 1541 1541 1541
1538 1538 1538 1538 1538 1539 1539 1539 1539 1539 1540 1540 1540 1540 1540 1540 1540 1539 1539 1539 1539 1538 1538 1537 1537 1537 1537 1537 1537 1536 1536 1537 1538 1538 1538 1539 1539 1540 1541 1541 1542 1542 1542
1538 1538 1539 1539 1539 1539 1540 1540 1540 1540 1540 1540 1541 1541 1541 1541 1542 1541 1541 1540 1540 1540 1539 1539 1539 1538 1538 1538 1538 1538 1538 1538 1538 1539 1540 1540 1540 1541 1542 1542 1543 1543 1543
1539 1539 1539 1539 1540 1540 1540 1540 1540 1540 1541 1541 1541 1542 1542 1543 1543 1543 1542 1542 1541 1541 1541 1541 1540 1540 1540 1539 1539 1539 1539 1539 1539 1540 1540 1541 1541 1542 1543 1543 1543 1544 1544
1539 1539 1539 1539 1540 1540 1540 1540 1541 1541 1541 1542 1542 1543 1543 1543 1543 1544 1544 1544 1543 1543 1542 1542 1542 1541 1541 1541 1541 1540 1540 1540 1541 1541 1541 1541 1542 1543 1543 1543 1544 1544 1544
1539 1539 1539 1540 1540 1540 1540 1540 1541 1541 1542 1542 1543 1543 1544 1544 1544 1545 1545 1545 1545 1544 1544 1543 1543 1543 1542 1542 1542 1541 1541 1541 1541 1542 1542 1542 1543 1543 1543 1544 1544 1544 1545
1539 1539 1539 1540 1540 1540 1540 1540 1541 1541 1542 1543 1543 1544 1545 1545 1545 1545 1546 1546 1546 1546 1545 1544 1544 1543 1543 1543 1543 1543 1542 1542 1542 1542 1542 1543 1543 1543 1544 1544 1545 1545 1545
1538 1539 1539 1539 1539 1539 1540 1540 1541 1541 1542 1543 1543 1544 1544 1546 1545 1546 1546 1546 1546 1546 1546 1545 1545 1544 1544 1543 1543 1543 1543 1543 1543 1543 1543 1543 1543 1544 1544 1544 1545 1545 1545
1538 1538 1539 1539 1539 1539 1539 1540 1540 1541 1541 1542 1543 1544 1544 1544 1545 1546 1546 1546 1545 1546 1546 1546 1545 1544 1544 1544 1544 1544 1543 1543 1543 1543 1543 1543 1543 1544 1544 1544 1545 1545 1545
1537 1538 1538 1538 1538 1539 1539 1539 1540 1540 1541 1541 1542 1543 1543 1544 1544 1544 1545 1545 1545 1545 1545 1545 1545 1544 1544 1543 1544 1544 1544 1543 1543 1543 1543 1543 1543 1543 1544 1544 1544 1544 1545
1536 1536 1536 1537 1537 1537 1538 1538 1538 1539 1539 1540 1540 1541 1542 1542 1543 1543 1544 1544 1544 1544 1544 1544 1544 1544 1543 1543 1543 1543 1543 1543 1543 1543 1543 1543 1543 1543 1543 1543 1544 1544 1544
1534 1534 1534 1535 1535 1536 1536 1536 1537 1537 1538 1538 1539 1540 1540 1541 1541 1542 1542 1542 1543 1543 1543 1543 1543 1543 1543 1542 1543 1543 1543 1543 1542 1542 1542 1542 1542 1542 1542 1542 1542 1543 1543
1532 1533 1533 1533 1533 1534 1534 1534 1535 1535 1536 1536 1537 1538 1538 1539 1540 1540 1540 1540 1541 1541 1541 1542 1541 1541 1541 1541 1541 1542 1542 1542 1541 1541 1541 1541 1541 1541 1541 1541 1541 1541 1542
1530 1530 1531 1531 1532 1532 1532 1532 1533 1533 1534 1534 1535 1535 1536 1537 1537 1538 1538 1538 1539 1539 1539 1540 1540 1540 1540 1540 1540 1540 1540 1540 1540 1540 1540 1540 1539 1539 1539 1539 1540 1540 1540
1528 1528 1529 1529 1529 1529 1530 1530 1530 1531 1532 1532 1532 1533 1534 1534 1535 1535 1536 1536 1537 1537 1537 1537 1537 1538 1538 1538 1538 1538 1538 1538 1538 1538 1538 1538 1538 1538 1538 1538 1538 1538 1538
1526 1526 1526 1526 1527 1527 1527 1527 1528 1528 1529 1529 1530 1531 1531 1531 1532 1532 1533 1533 1534 1535 1534 1535 1535 1535 1536 1536 1536 1536 1536 1536 1536 1536 1536 1536 1535 1535 1536 1536 1536 1536 1536
1523 1524 1524 1524 1525 1525 1525 1525 1525 1525 1526 1526 1527 1528 1528 1529 1529 1529 1529 1530 1531 1531 1531 1532 1533 1533 1533 1533 1533 1534 1534 1534 1534 1534 1533 1533 1533 1533 1533 1533 1533 1533 1534
1521 1521 1522 1522 1522 1522 1522 1522 1522 1522 1523 1523 1524 1524 1525 1526 1526 1526 1527 1527 1527 1528 1529 1529 1530 1530 1530 1531 1531 1531 1531 1531 1531 1531 1531 1531 1530 1530 1530 1530 1530 1531 1531
1518 1519 1519 1519 1519 1519 1519 1520 1520 1520 1520 1521 1521 1521 1522 1522 1523 1523 1523 1524 1525 1525 1526 1526 1526 1527 1528 1528 1528 1528 1528 1528 1528 1528 1528 1528 1528 1528 1527 1527 1527 1528 1528
1515 1515 1516 1516 1516 1516 1517 1517 1517 1517 1517 1518 1518 1518 1519 1519 1519 1520 1520 1521 1522 1522 1522 1523 1524 1524 1525 1525 1525 1525 1525 1524 1525 1525 1525 1525 1525 1525 1524 1524 1524 1524 1524
1513 1513 1513 1513 1513 1513 1513 1514 1514 1514 1514 1515 1515 1515 1516 1516 1516 1517 1517 1518 1518 1519 1519 1519 1520 1521 1521 1521 1521 1522 1522 1522 1522 1522 1522 1522 1521 1521 1521 1521 1521 1521 1521
1509 1510 1510 1510 1510 1510 1510 1511 1511 1511 1511 1511 1512 1512 1512 1512 1513 1513 1514 1514 1515 1516 1516 1516 1516 1517 1517 1518 1518 1518 1518 1518 1518 1519 1518 1518 1518 1518 1518 1518 1517 1517 1517
1506 1507 1507 1508 1507 1507 1507 1508 1508 1508 1508 1508 1508 1509 1509 1508 1509 1509 1510 1511 1511 1512 1513 1513 1513 1513 1514 1514 1514 1514 1514 1514 1514 1515 1515 1514 1514 1514 1514 1514 1514 1514 1514
1503 1504 1504 1504 1504 1504 1504 1504 1504 1504 1505 1505 1505 1506 1506 1505 1505 1506 1506 1507 1507 1508 1508 1509 1509 1510 1510 1510 1510 1511 1511 1511 1511 1511 1511 1510 1510 1510 1510 1510 1510 1510 1509
1500 1500 1500 1501 1501 1500 1501 1501 1501 1501 1501 1501 1502 1502 1502 1502 1501 1502 1502 1502 1503 1503 1504 1504 1505 1505 1506 1506 1506 1507 1507 1507 1506 1506 1507 1506 1506 1506 1506 1505 1505 1505 1505
1496 1496 1497 1497 1497 1497 1497 1497 1497 1497 1496 1497 1497 1497 1497 1498 1498 1497 1498 1498 1498 1498 1499 1499 1500 1500 1501 1501 1502 1502 1502 1502 1502 1502 1502 1502 1502 1502 1501 1501 1501 1501 1501